Time,TemperatureF,DewpointF,PressureIn,WindDirection,WindDirectionDegrees,WindSpeedMPH,WindSpeedGustMPH,Humidity,HourlyPrecipIn,Conditions,Clouds,dailyrainin,SoftwareType,DateUTC
2013-02-20 00:01:00,22.0,12.0,-100.00,SSW,200,0.0,1.0,66,0.00,,,-99.99,,2013-02-20 07:01:00,
2013-02-20 00:11:00,22.0,12.0,-100.00,SSW,202,1.0,1.0,66,0.00,,,-99.99,,2013-02-20 07:11:00,
2013-02-20 00:21:00,20.0,12.0,-100.00,South,178,0.0,1.0,74,0.00,,,-99.99,,2013-02-20 07:21:00,
2013-02-20 00:31:00,21.0,12.0,-100.00,East,92,2.0,2.0,68,0.00,,,-99.99,,2013-02-20 07:31:00,
2013-02-20 00:41:00,21.0,13.0,-100.00,East,100,2.0,2.0,70,0.00,,,-99.99,,2013-02-20 07:41:00,
2013-02-20 00:51:00,20.0,12.0,-100.00,SSE,151,0.0,1.0,68,0.00,,,-99.99,,2013-02-20 07:51:00,
2013-02-20 01:01:00,21.0,13.0,-100.00,SW,215,1.0,1.0,72,0.00,,,-99.99,,2013-02-20 08:01:00,
2013-02-20 01:11:00,21.0,13.0,-100.00,SSW,206,1.0,2.0,71,0.00,,,-99.99,,2013-02-20 08:11:00,
2013-02-20 01:21:00,22.0,13.0,-100.00,SSW,206,2.0,3.0,69,0.00,,,-99.99,,2013-02-20 08:21:00,
2013-02-20 01:31:00,23.0,12.0,-100.00,South,184,2.0,3.0,62,0.00,,,-99.99,,2013-02-20 08:31:00,
2013-02-20 01:41:00,23.0,11.0,-100.00,SSE,168,1.0,2.0,60,0.00,,,-99.99,,2013-02-20 08:41:00,
2013-02-20 01:51:00,22.0,11.0,-100.00,SW,215,0.0,0.0,63,0.00,,,-99.99,,2013-02-20 08:51:00,
2013-02-20 02:01:00,22.0,11.0,-100.00,South,171,2.0,2.0,62,0.00,,,-99.99,,2013-02-20 09:01:00,
2013-02-20 02:11:00,23.0,11.0,-100.00,East,83,1.0,2.0,60,0.00,,,-99.99,,2013-02-20 09:11:00,
2013-02-20 02:21:00,23.0,11.0,-100.00,ENE,65,2.0,2.0,58,0.00,,,-99.99,,2013-02-20 09:21:00,
2013-02-20 02:31:00,22.0,9.0,-100.00,East,85,2.0,3.0,59,0.00,,,-99.99,,2013-02-20 09:31:00,
2013-02-20 02:41:00,22.0,10.0,-100.00,NE,45,0.0,0.0,59,0.00,,,-99.99,,2013-02-20 09:41:00,
2013-02-20 02:51:00,22.0,11.0,-100.00,ESE,110,1.0,2.0,61,0.00,,,-99.99,,2013-02-20 09:51:00,
2013-02-20 03:01:00,22.0,11.0,-100.00,East,92,1.0,2.0,62,0.00,,,-99.99,,2013-02-20 10:01:00,
2013-02-20 03:11:00,22.0,10.0,-100.00,East,88,2.0,2.0,60,0.00,,,-99.99,,2013-02-20 10:11:00,
2013-02-20 03:21:00,22.0,11.0,-100.00,East,96,2.0,2.0,61,0.00,,,-99.99,,2013-02-20 10:21:00,
2013-02-20 03:31:00,22.0,10.0,-100.00,SE,131,1.0,1.0,59,0.00,,,-99.99,,2013-02-20 10:31:00,
2013-02-20 03:41:00,22.0,10.0,-100.00,SSE,147,1.0,1.0,60,0.00,,,-99.99,,2013-02-20 10:41:00,
2013-02-20 03:51:00,23.0,10.0,-100.00,SSE,167,1.0,2.0,58,0.00,,,-99.99,,2013-02-20 10:51:00,
2013-02-20 04:01:00,22.0,10.0,-100.00,SE,144,0.0,0.0,61,0.00,,,-99.99,,2013-02-20 11:01:00,
2013-02-20 04:11:00,23.0,8.0,-100.00,SE,136,2.0,3.0,52,0.00,,,-99.99,,2013-02-20 11:11:00,
2013-02-20 04:21:00,24.0,9.0,-100.00,SE,138,2.0,4.0,51,0.00,,,-99.99,,2013-02-20 11:21:00,
2013-02-20 04:31:00,24.0,8.0,-100.00,South,175,1.0,2.0,50,0.00,,,-99.99,,2013-02-20 11:31:00,
2013-02-20 04:41:00,24.0,9.0,-100.00,South,182,1.0,2.0,51,0.00,,,-99.99,,2013-02-20 11:41:00,
2013-02-20 04:52:00,23.0,9.0,-100.00,SSE,161,1.0,1.0,53,0.00,,,-99.99,,2013-02-20 11:52:00,
2013-02-20 05:01:00,24.0,8.0,-100.00,South,188,1.0,2.0,51,0.00,,,-99.99,,2013-02-20 12:01:00,
2013-02-20 05:11:00,24.0,7.0,-100.00,SSW,193,1.0,2.0,48,0.00,,,-99.99,,2013-02-20 12:11:00,
2013-02-20 05:21:00,23.0,7.0,-100.00,East,95,2.0,3.0,49,0.00,,,-99.99,,2013-02-20 12:21:00,
2013-02-20 05:31:00,23.0,7.0,-100.00,ESE,123,0.0,1.0,50,0.00,,,-99.99,,2013-02-20 12:31:00,
2013-02-20 05:41:00,23.0,7.0,-100.00,SSE,158,1.0,2.0,49,0.00,,,-99.99,,2013-02-20 12:41:00,
2013-02-20 05:52:00,23.0,7.0,-100.00,South,182,2.0,4.0,50,0.00,,,-99.99,,2013-02-20 12:52:00,
2013-02-20 06:01:00,22.0,7.0,-100.00,SSE,150,0.0,1.0,51,0.00,,,-99.99,,2013-02-20 13:01:00,
2013-02-20 06:11:00,22.0,7.0,-100.00,East,82,1.0,2.0,51,0.00,,,-99.99,,2013-02-20 13:11:00,
2013-02-20 06:22:00,22.0,7.0,-100.00,SE,138,1.0,2.0,51,0.00,,,-99.99,,2013-02-20 13:22:00,
2013-02-20 06:31:00,21.0,8.0,-100.00,SW,236,0.0,1.0,55,0.00,,,-99.99,,2013-02-20 13:31:00,
2013-02-20 06:42:00,21.0,7.0,-100.00,South,182,1.0,2.0,54,0.00,,,-99.99,,2013-02-20 13:42:00,
2013-02-20 06:51:00,19.0,6.0,-100.00,ESE,104,1.0,2.0,56,0.00,,,-99.99,,2013-02-20 13:51:00,
2013-02-20 07:01:00,19.0,7.0,-100.00,SE,134,1.0,2.0,59,0.00,,,-99.99,,2013-02-20 14:01:00,
2013-02-20 07:11:00,20.0,9.0,-100.00,South,174,2.0,2.0,62,0.00,,,-99.99,,2013-02-20 14:11:00,
2013-02-20 07:21:00,20.0,9.0,-100.00,NE,38,1.0,1.0,61,0.00,,,-99.99,,2013-02-20 14:21:00,
2013-02-20 07:32:00,18.0,9.0,-100.00,South,174,1.0,2.0,66,0.00,,,-99.99,,2013-02-20 14:32:00,
2013-02-20 07:42:00,19.0,9.0,-100.00,ESE,112,1.0,2.0,66,0.00,,,-99.99,,2013-02-20 14:42:00,
2013-02-20 07:52:00,18.0,8.0,-100.00,SE,130,1.0,2.0,62,0.00,,,-99.99,,2013-02-20 14:52:00,
2013-02-20 08:01:00,20.0,9.0,-100.00,SSW,199,1.0,1.0,61,0.00,,,-99.99,,2013-02-20 15:01:00,
2013-02-20 08:11:00,20.0,8.0,-100.00,SE,134,1.0,2.0,58,0.00,,,-99.99,,2013-02-20 15:11:00,
2013-02-20 08:22:00,21.0,7.0,-100.00,ESE,120,1.0,2.0,55,0.00,,,-99.99,,2013-02-20 15:22:00,
2013-02-20 08:31:00,21.0,7.0,-100.00,ESE,109,2.0,2.0,54,0.00,,,-99.99,,2013-02-20 15:31:00,
2013-02-20 08:41:00,22.0,8.0,-100.00,ENE,66,2.0,2.0,53,0.00,,,-99.99,,2013-02-20 15:41:00,
2013-02-20 08:51:00,22.0,7.0,-100.00,ENE,72,4.0,6.0,53,0.00,,,-99.99,,2013-02-20 15:51:00,
2013-02-20 09:01:00,23.0,8.0,-100.00,East,100,4.0,4.0,52,0.00,,,-99.99,,2013-02-20 16:01:00,
2013-02-20 09:11:00,23.0,8.0,-100.00,ESE,104,2.0,3.0,52,0.00,,,-99.99,,2013-02-20 16:11:00,
2013-02-20 09:21:00,24.0,9.0,-100.00,SSE,162,1.0,2.0,52,0.00,,,-99.99,,2013-02-20 16:21:00,
2013-02-20 09:32:00,24.0,9.0,-100.00,ESE,113,0.0,1.0,52,0.00,,,-99.99,,2013-02-20 16:32:00,
2013-02-20 09:41:00,23.0,8.0,-100.00,East,93,2.0,2.0,53,0.00,,,-99.99,,2013-02-20 16:41:00,
2013-02-20 09:51:00,24.0,8.0,-100.00,SE,138,2.0,2.0,50,0.00,,,-99.99,,2013-02-20 16:51:00,
2013-02-20 10:01:00,26.0,9.0,-100.00,SSE,165,1.0,1.0,48,0.00,,,-99.99,,2013-02-20 17:01:00,
2013-02-20 10:11:00,30.0,10.0,-100.00,SW,229,0.0,1.0,41,0.00,,,-99.99,,2013-02-20 17:11:00,
2013-02-20 10:21:00,28.0,8.0,-100.00,SE,131,1.0,1.0,43,0.00,,,-99.99,,2013-02-20 17:21:00,
2013-02-20 10:32:00,30.0,10.0,-100.00,SSW,208,0.0,1.0,42,0.00,,,-99.99,,2013-02-20 17:32:00,
2013-02-20 10:41:00,34.0,9.0,-100.00,SSW,210,0.0,1.0,34,0.00,,,-99.99,,2013-02-20 17:41:00,
2013-02-20 10:52:00,36.0,11.0,-100.00,West,267,0.0,1.0,33,0.00,,,-99.99,,2013-02-20 17:52:00,
2013-02-20 11:02:00,35.0,9.0,-100.00,SW,236,1.0,1.0,34,0.00,,,-99.99,,2013-02-20 18:02:00,
2013-02-20 11:11:00,29.0,9.0,-100.00,WNW,296,3.0,5.0,42,0.00,,,-99.99,,2013-02-20 18:11:00,
2013-02-20 11:21:00,28.0,10.0,-100.00,WNW,285,4.0,6.0,46,0.00,,,-99.99,,2013-02-20 18:21:00,
2013-02-20 11:31:00,27.0,10.0,-100.00,NNW,335,3.0,4.0,47,0.00,,,-99.99,,2013-02-20 18:31:00,
2013-02-20 11:41:00,28.0,11.0,-100.00,NW,315,2.0,4.0,47,0.00,,,-99.99,,2013-02-20 18:41:00,
2013-02-20 11:51:00,28.0,11.0,-100.00,NW,320,2.0,5.0,48,0.00,,,-99.99,,2013-02-20 18:51:00,
2013-02-20 12:01:00,27.0,11.0,-100.00,NW,325,3.0,6.0,50,0.00,,,-99.99,,2013-02-20 19:01:00,
2013-02-20 12:11:00,27.0,12.0,-100.00,NW,322,6.0,7.0,54,0.00,,,-99.99,,2013-02-20 19:11:00,
2013-02-20 12:21:00,27.0,12.0,-100.00,NW,323,6.0,7.0,53,0.00,,,-99.99,,2013-02-20 19:21:00,
2013-02-20 12:31:00,26.0,11.0,-100.00,NNW,329,6.0,9.0,51,0.00,,,-99.99,,2013-02-20 19:31:00,
2013-02-20 12:41:00,27.0,11.0,-100.00,NW,312,7.0,11.0,50,0.00,,,-99.99,,2013-02-20 19:41:00,
2013-02-20 12:51:00,27.0,13.0,-100.00,WNW,299,6.0,8.0,54,0.00,,,-99.99,,2013-02-20 19:51:00,
2013-02-20 13:01:00,29.0,13.0,-100.00,West,275,8.0,9.0,52,0.00,,,-99.99,,2013-02-20 20:01:00,
2013-02-20 13:11:00,29.0,13.0,-100.00,West,267,7.0,10.0,51,0.00,,,-99.99,,2013-02-20 20:11:00,
2013-02-20 13:21:00,29.0,12.0,-100.00,West,272,7.0,9.0,49,0.00,,,-99.99,,2013-02-20 20:21:00,
2013-02-20 13:31:00,30.0,13.0,-100.00,West,270,9.0,10.0,50,0.00,,,-99.99,,2013-02-20 20:31:00,
2013-02-20 13:41:00,29.0,15.0,-100.00,West,271,7.0,9.0,54,0.00,,,-99.99,,2013-02-20 20:41:00,
2013-02-20 13:51:00,29.0,13.0,-100.00,West,272,6.0,9.0,51,0.00,,,-99.99,,2013-02-20 20:51:00,
2013-02-20 14:01:00,30.0,15.0,-100.00,West,272,7.0,9.0,52,0.00,,,-99.99,,2013-02-20 21:01:00,
2013-02-20 14:11:00,30.0,14.0,-100.00,West,278,6.0,8.0,51,0.00,,,-99.99,,2013-02-20 21:11:00,
2013-02-20 14:21:00,31.0,14.0,-100.00,West,272,6.0,7.0,49,0.00,,,-99.99,,2013-02-20 21:21:00,
2013-02-20 14:31:00,29.0,15.0,-100.00,WNW,282,6.0,7.0,53,0.00,,,-99.99,,2013-02-20 21:31:00,
2013-02-20 14:41:00,30.0,14.0,-100.00,WNW,301,4.0,7.0,51,0.00,,,-99.99,,2013-02-20 21:41:00,
2013-02-20 14:51:00,28.0,14.0,-100.00,NW,305,5.0,7.0,55,0.00,,,-99.99,,2013-02-20 21:51:00,
2013-02-20 15:01:00,28.0,14.0,-100.00,NW,304,6.0,7.0,54,0.00,,,-99.99,,2013-02-20 22:01:00,
2013-02-20 15:11:00,28.0,14.0,-100.00,NW,316,4.0,7.0,55,0.00,,,-99.99,,2013-02-20 22:11:00,
2013-02-20 15:21:00,28.0,14.0,-100.00,NNW,339,4.0,6.0,56,0.00,,,-99.99,,2013-02-20 22:21:00,
2013-02-20 15:31:00,28.0,14.0,-100.00,NW,325,4.0,6.0,54,0.00,,,-99.99,,2013-02-20 22:31:00,
2013-02-20 15:41:00,29.0,14.0,-100.00,NNW,330,3.0,4.0,54,0.00,,,-99.99,,2013-02-20 22:41:00,
2013-02-20 15:51:00,29.0,14.0,-100.00,NW,313,2.0,4.0,54,0.00,,,-99.99,,2013-02-20 22:51:00,
2013-02-20 16:01:00,28.0,14.0,-100.00,WNW,299,4.0,7.0,55,0.00,,,-99.99,,2013-02-20 23:01:00,
2013-02-20 16:11:00,29.0,17.0,-100.00,West,260,6.0,7.0,58,0.00,,,-99.99,,2013-02-20 23:11:00,
2013-02-20 16:21:00,29.0,14.0,-100.00,WNW,288,6.0,7.0,55,0.00,,,-99.99,,2013-02-20 23:21:00,
2013-02-20 16:31:00,27.0,14.0,-100.00,WNW,302,4.0,6.0,56,0.00,,,-99.99,,2013-02-20 23:31:00,
2013-02-20 16:42:00,28.0,14.0,-100.00,NW,308,3.0,4.0,56,0.00,,,-99.99,,2013-02-20 23:42:00,
2013-02-20 16:52:00,29.0,16.0,-100.00,SW,230,2.0,3.0,58,0.00,,,-99.99,,2013-02-20 23:52:00,
2013-02-20 17:02:00,27.0,15.0,-100.00,SSW,203,2.0,4.0,59,0.00,,,-99.99,,2013-02-21 00:02:00,
2013-02-20 17:11:00,27.0,15.0,-100.00,SSW,205,2.0,4.0,60,0.00,,,-99.99,,2013-02-21 00:11:00,
2013-02-20 17:21:00,27.0,15.0,-100.00,SSW,203,2.0,4.0,60,0.00,,,-99.99,,2013-02-21 00:21:00,
2013-02-20 17:31:00,27.0,15.0,-100.00,SW,216,2.0,3.0,59,0.00,,,-99.99,,2013-02-21 00:31:00,
2013-02-20 17:41:00,26.0,14.0,-100.00,WSW,247,1.0,2.0,61,0.00,,,-99.99,,2013-02-21 00:41:00,
2013-02-20 17:52:00,25.0,14.0,-100.00,South,171,0.0,0.0,62,0.00,,,-99.99,,2013-02-21 00:52:00,
2013-02-20 18:01:00,25.0,13.0,-100.00,NNW,336,3.0,4.0,61,0.00,,,-99.99,,2013-02-21 01:01:00,
2013-02-20 18:11:00,24.0,13.0,-100.00,NNW,333,3.0,4.0,65,0.00,,,-99.99,,2013-02-21 01:11:00,
2013-02-20 18:21:00,23.0,13.0,-100.00,NW,322,2.0,4.0,65,0.00,,,-99.99,,2013-02-21 01:21:00,
2013-02-20 18:32:00,22.0,13.0,-100.00,NNW,330,0.0,1.0,69,0.00,,,-99.99,,2013-02-21 01:32:00,
2013-02-20 18:41:00,22.0,14.0,-100.00,NW,306,4.0,4.0,71,0.00,,,-99.99,,2013-02-21 01:41:00,
2013-02-20 18:51:00,23.0,13.0,-100.00,NW,306,1.0,2.0,67,0.00,,,-99.99,,2013-02-21 01:51:00,
2013-02-20 19:01:00,23.0,14.0,-100.00,ENE,65,2.0,4.0,69,0.00,,,-99.99,,2013-02-21 02:01:00,
2013-02-20 19:11:00,23.0,14.0,-100.00,North,0,1.0,2.0,68,0.00,,,-99.99,,2013-02-21 02:11:00,
2013-02-20 19:21:00,22.0,14.0,-100.00,North,350,2.0,3.0,70,0.00,,,-99.99,,2013-02-21 02:21:00,
2013-02-20 19:32:00,23.0,14.0,-100.00,North,0,2.0,3.0,67,0.00,,,-99.99,,2013-02-21 02:32:00,
2013-02-20 19:41:00,23.0,14.0,-100.00,North,0,2.0,3.0,67,0.00,,,-99.99,,2013-02-21 02:41:00,
2013-02-20 19:51:00,23.0,14.0,-100.00,North,0,2.0,3.0,67,0.00,,,-99.99,,2013-02-21 02:51:00,
2013-02-20 20:01:00,22.0,13.0,-100.00,NNE,21,0.0,1.0,68,0.00,,,-99.99,,2013-02-21 03:01:00,
2013-02-20 20:11:00,22.0,13.0,-100.00,NNE,23,1.0,2.0,69,0.00,,,-99.99,,2013-02-21 03:11:00,
2013-02-20 20:21:00,22.0,13.0,-100.00,NE,56,0.0,1.0,70,0.00,,,-99.99,,2013-02-21 03:21:00,
2013-02-20 20:31:00,21.0,13.0,-100.00,WNW,292,0.0,1.0,71,0.00,,,-99.99,,2013-02-21 03:31:00,
2013-02-20 20:41:00,21.0,13.0,-100.00,WNW,296,0.0,0.0,73,0.00,,,-99.99,,2013-02-21 03:41:00,
2013-02-20 20:51:00,20.0,13.0,-100.00,ESE,104,1.0,1.0,72,0.00,,,-99.99,,2013-02-21 03:51:00,
2013-02-20 21:01:00,20.0,13.0,-100.00,SW,229,1.0,2.0,73,0.00,,,-99.99,,2013-02-21 04:01:00,
2013-02-20 21:11:00,21.0,13.0,-100.00,SSW,208,0.0,1.0,73,0.00,,,-99.99,,2013-02-21 04:11:00,
2013-02-20 21:21:00,20.0,12.0,-100.00,SW,220,0.0,0.0,72,0.00,,,-99.99,,2013-02-21 04:21:00,
2013-02-20 21:31:00,20.0,12.0,-100.00,ESE,107,0.0,0.0,73,0.00,,,-99.99,,2013-02-21 04:31:00,
2013-02-20 21:41:00,19.0,12.0,-100.00,SW,233,0.0,0.0,73,0.00,,,-99.99,,2013-02-21 04:41:00,
2013-02-20 21:51:00,19.0,12.0,-100.00,NW,316,1.0,2.0,73,0.00,,,-99.99,,2013-02-21 04:51:00,
2013-02-20 22:02:00,21.0,13.0,-100.00,North,350,4.0,6.0,70,0.00,,,-99.99,,2013-02-21 05:02:00,
2013-02-20 22:11:00,21.0,13.0,-100.00,NNW,342,5.0,7.0,70,0.00,,,-99.99,,2013-02-21 05:11:00,
2013-02-20 22:21:00,20.0,13.0,-100.00,NW,323,5.0,7.0,72,0.00,,,-99.99,,2013-02-21 05:21:00,
2013-02-20 22:32:00,19.0,12.0,-100.00,NNW,330,1.0,3.0,75,0.00,,,-99.99,,2013-02-21 05:32:00,
2013-02-20 22:41:00,19.0,13.0,-100.00,WNW,288,2.0,3.0,76,0.00,,,-99.99,,2013-02-21 05:41:00,
2013-02-20 22:51:00,20.0,13.0,-100.00,West,272,2.0,3.0,74,0.00,,,-99.99,,2013-02-21 05:51:00,
2013-02-20 23:01:00,19.0,12.0,-100.00,West,263,2.0,3.0,75,0.00,,,-99.99,,2013-02-21 06:01:00,
2013-02-20 23:10:00,19.0,13.0,-100.00,WSW,254,1.0,2.0,77,0.00,,,-99.99,,2013-02-21 06:10:00,
2013-02-20 23:20:00,18.0,12.0,-100.00,NNW,343,1.0,3.0,78,0.00,,,-99.99,,2013-02-21 06:20:00,
2013-02-20 23:31:00,18.0,13.0,-100.00,NNW,339,4.0,6.0,81,0.00,,,-99.99,,2013-02-21 06:31:00,
2013-02-20 23:41:00,19.0,14.0,-100.00,NNW,344,5.0,6.0,82,0.00,,,-99.99,,2013-02-21 06:41:00,
2013-02-20 23:51:00,19.0,14.0,-100.00,North,350,4.0,6.0,83,0.00,,,-99.99,,2013-02-21 06:51:00,